User: anonymous   Login
Location: Nebula Knoll Observatory
(43.6666°N, 71.0000°W)
Time: 02:53:46
(UTC-04:00)
Language:

Cosmos 1782 - Orbit

View from above orbital plane
View from above orbital plane
View from above satellite
View from above satellite

Ground track
Ground track

The orbit data is extracted from the following two-line orbital elements,

1 16986U 86074A   16205.70458408  .00000164  00000-0  91615-5 0  9993
2 16986  82.5063  80.6918 0011996  33.0783 327.1192 15.06167016621409
Epoch (UTC): 23 July 2016 16:54:36
Eccentricity: 0.0011996
inclination: 82.5063°
perigee height: 539 km
apogee height: 556 km
right ascension of ascending node: 80.6918°
argument of perigee: 33.0783°
revolutions per day: 15.06167016
mean anomaly at epoch: 327.1192°
orbit number at epoch: 62140

The dashed part of the orbit path shows where the satellite is in the earth's shadow,  

DLR